Satellite: ANTELSAT Catalog number: 40034 Epoch time: 14303.72961645 Element set: 392 Inclination: 097.9661 deg RA of node: 195.6299 deg Eccentricity: 0.0061772 Arg of perigee: 133.2236 deg Mean anomaly: 227.4162 deg Mean motion: 14.71603296 rev/day Decay rate: 3.316e-05 rev/day^2 Epoch rev: 1953 Checksum: 300
/EX SB KEPS @ AMSAT $ORB14303.W Orbital Elements 14303.WEATHER
HR AMSAT ORBITAL ELEMENTS FOR WEATHER SATELLITES FROM WA5QGD FORT WORTH,TX October 30, 2014 BID: ORB14303.W TO ALL RADIO AMATEURS BT
Satellite: MET-2/21 Catalog number: 22782 Epoch time: 14302.79829966 Element set: 212 Inclination: 082.5507 deg RA of node: 066.4918 deg Eccentricity: 0.0021337 Arg of perigee: 245.3008 deg Mean anomaly: 270.0512 deg Mean motion: 13.83749575 rev/day Decay rate: 8.3e-07 rev/day^2 Epoch rev: 6873 Checksum: 311
Satellite: OKEAN-4 Catalog number: 23317 Epoch time: 14303.13160975 Element set: 695 Inclination: 082.5365 deg RA of node: 301.3866 deg Eccentricity: 0.0020637 Arg of perigee: 017.4371 deg Mean anomaly: 099.4016 deg Mean motion: 14.85849102 rev/day Decay rate: 3.034e-05 rev/day^2 Epoch rev: 8314 Checksum: 286
Satellite: NOAA-14 Catalog number: 23455 Epoch time: 14303.43885519 Element set: 960 Inclination: 098.7716 deg RA of node: 024.4261 deg Eccentricity: 0.0009539 Arg of perigee: 021.5160 deg Mean anomaly: 034.7325 deg Mean motion: 14.13995611 rev/day Decay rate: 1.30e-06 rev/day^2 Epoch rev: 2306 Checksum: 280
Satellite: NOAA-15 Catalog number: 25338 Epoch time: 14303.45867294 Element set: 400 Inclination: 098.7617 deg RA of node: 297.1206 deg Eccentricity: 0.0011744 Arg of perigee: 114.3792 deg Mean anomaly: 011.8756 deg Mean motion: 14.25494770 rev/day Decay rate: 2.85e-06 rev/day^2 Epoch rev: 85611 Checksum: 313
Satellite: RESURS Catalog number: 25394 Epoch time: 14302.95015015 Element set: 796 Inclination: 098.4322 deg RA of node: 261.7663 deg Eccentricity: 0.0001140 Arg of perigee: 172.2829 deg Mean anomaly: 228.8851 deg Mean motion: 14.24409720 rev/day Decay rate: 1.19e-06 rev/day^2 Epoch rev: 84750 Checksum: 288
Satellite: FENGYUN1 Catalog number: 25730 Epoch time: 14303.47293697 Element set: 285 Inclination: 098.9230 deg RA of node: 263.8189 deg Eccentricity: 0.0023308 Arg of perigee: 084.9804 deg Mean anomaly: 035.6289 deg Mean motion: 14.12332125 rev/day Decay rate: 3.065e-05 rev/day^2 Epoch rev: 79661 Checksum: 316
Satellite: OKEAN-0 Catalog number: 25860 Epoch time: 14302.93437101 Element set: 403 Inclination: 098.0619 deg RA of node: 266.1450 deg Eccentricity: 0.0001336 Arg of perigee: 083.1268 deg Mean anomaly: 342.0768 deg Mean motion: 14.75507088 rev/day Decay rate: 1.117e-05 rev/day^2 Epoch rev: 82202 Checksum: 272
Satellite: NOAA-16 Catalog number: 26536 Epoch time: 14303.25563882 Element set: 898 Inclination: 098.9752 deg RA of node: 004.0982 deg Eccentricity: 0.0011143 Arg of perigee: 158.6749 deg Mean anomaly: 201.4889 deg Mean motion: 14.13049547 rev/day Decay rate: 8.0e-08 rev/day^2 Epoch rev: 72718 Checksum: 332
Satellite: NOAA-17 Catalog number: 27453 Epoch time: 14303.45025956 Element set: 787 Inclination: 098.3224 deg RA of node: 296.0960 deg Eccentricity: 0.0012772 Arg of perigee: 134.3122 deg Mean anomaly: 225.9108 deg Mean motion: 14.24802375 rev/day Decay rate: 3.16e-06 rev/day^2 Epoch rev: 64194 Checksum: 300
Satellite: NOAA-18 Catalog number: 28654 Epoch time: 14303.44960447 Element set: 312 Inclination: 099.1637 deg RA of node: 285.7688 deg Eccentricity: 0.0013460 Arg of perigee: 242.6331 deg Mean anomaly: 228.1889 deg Mean motion: 14.12086114 rev/day Decay rate: 3.65e-06 rev/day^2 Epoch rev: 48665 Checksum: 322
Satellite: NOAA-19 Catalog number: 33591 Epoch time: 14303.50793944 Element set: 443 Inclination: 098.9600 deg RA of node: 248.2280 deg Eccentricity: 0.0015130 Arg of perigee: 097.5864 deg Mean anomaly: 013.0304 deg Mean motion: 14.11793067 rev/day Decay rate: 2.42e-06 rev/day^2 Epoch rev: 29508 Checksum: 293
/EX SB KEPS @ AMSAT $ORB14303.M Orbital Elements 14303.MISC
HR AMSAT ORBITAL ELEMENTS FOR MANNED AND MISCELLANEOUS SATELLITES FROM WA5QGD FORT WORTH,TX October 30, 2014 BID: ORB14303.M TO ALL RADIO AMATEURS BT
Satellite: HUBBLE Catalog number: 20580 Epoch time: 14303.38714120 Element set: 146 Inclination: 028.4697 deg RA of node: 228.0463 deg Eccentricity: 0.0002993 Arg of perigee: 294.7248 deg Mean anomaly: 012.8548 deg Mean motion: 15.06048498 rev/day Decay rate: 4.767e-05 rev/day^2 Epoch rev: 14511 Checksum: 300
Satellite: ISS Catalog number: 25544 Epoch time: 14303.84410568 Element set: 328 Inclination: 051.6437 deg RA of node: 147.1215 deg Eccentricity: 0.0003495 Arg of perigee: 343.4607 deg Mean anomaly: 092.7870 deg Mean motion: 15.50800946 rev/day Decay rate: 2.1771e-04 rev/day^2 Epoch rev: 91237 Checksum: 293
Satellite: CO-58 Catalog number: 28895 Epoch time: 14302.76499696 Element set: 910 Inclination: 097.8253 deg RA of node: 137.6085 deg Eccentricity: 0.0016251 Arg of perigee: 308.5398 deg Mean anomaly: 051.4347 deg Mean motion: 14.62142584 rev/day Decay rate: 1.418e-05 rev/day^2 Epoch rev: 47991 Checksum: 350
Satellite: FALCON Catalog number: 30776 Epoch time: 14302.63119013 Element set: 992 Inclination: 035.4295 deg RA of node: 000.3100 deg Eccentricity: 0.0001346 Arg of perigee: 078.4620 deg Mean anomaly: 053.4770 deg Mean motion: 15.18429010 rev/day Decay rate: 1.3341e-04 rev/day^2 Epoch rev: 42116 Checksum: 240
Satellite: MAST Catalog number: 31126 Epoch time: 14302.88824557 Element set: 191 Inclination: 097.9306 deg RA of node: 276.8841 deg Eccentricity: 0.0090358 Arg of perigee: 294.5715 deg Mean anomaly: 124.8905 deg Mean motion: 14.55528476 rev/day Decay rate: 1.890e-05 rev/day^2 Epoch rev: 39998 Checksum: 349
Satellite: CAPE1 Catalog number: 31130 Epoch time: 14302.90204002 Element set: 196 Inclination: 097.9520 deg RA of node: 273.7253 deg Eccentricity: 0.0097301 Arg of perigee: 313.5113 deg Mean anomaly: 045.8028 deg Mean motion: 14.54777828 rev/day Decay rate: 2.158e-05 rev/day^2 Epoch rev: 39939 Checksum: 287
Satellite: COMPASS Catalog number: 32787 Epoch time: 14302.70434287 Element set: 86 Inclination: 097.6858 deg RA of node: 352.3224 deg Eccentricity: 0.0015125 Arg of perigee: 097.1487 deg Mean anomaly: 263.1450 deg Mean motion: 14.88722826 rev/day Decay rate: 4.154e-05 rev/day^2 Epoch rev: 35219 Checksum: 311
Satellite: AAUSAT2 Catalog number: 32788 Epoch time: 14303.11175387 Element set: 74 Inclination: 097.6869 deg RA of node: 353.8756 deg Eccentricity: 0.0014481 Arg of perigee: 093.9822 deg Mean anomaly: 266.3051 deg Mean motion: 14.89521691 rev/day Decay rate: 6.052e-05 rev/day^2 Epoch rev: 35232 Checksum: 323
Satellite: DO-64 Catalog number: 32789 Epoch time: 14303.43384499 Element set: 119 Inclination: 097.7059 deg RA of node: 002.0639 deg Eccentricity: 0.0012566 Arg of perigee: 077.5768 deg Mean anomaly: 348.1827 deg Mean motion: 14.95164668 rev/day Decay rate: 1.3753e-04 rev/day^2 Epoch rev: 35269 Checksum: 357
Satellite: CO-66 Catalog number: 32791 Epoch time: 14303.12411825 Element set: 68 Inclination: 097.6852 deg RA of node: 351.2005 deg Eccentricity: 0.0015730 Arg of perigee: 099.9627 deg Mean anomaly: 260.3365 deg Mean motion: 14.87211867 rev/day Decay rate: 4.828e-05 rev/day^2 Epoch rev: 35210 Checksum: 306
Satellite: RS-30 Catalog number: 32953 Epoch time: 14303.46122273 Element set: 421 Inclination: 082.4992 deg RA of node: 117.1071 deg Eccentricity: 0.0018630 Arg of perigee: 219.7149 deg Mean anomaly: 199.5231 deg Mean motion: 12.43052238 rev/day Decay rate: 4.2e-07 rev/day^2 Epoch rev: 29206 Checksum: 269
Satellite: METEOR-M Catalog number: 35865 Epoch time: 14303.64192238 Element set: 32 Inclination: 098.5344 deg RA of node: 346.8403 deg Eccentricity: 0.0003415 Arg of perigee: 077.5201 deg Mean anomaly: 079.1098 deg Mean motion: 14.21943913 rev/day Decay rate: 1.03e-06 rev/day^2 Epoch rev: 26558 Checksum: 285
Satellite: RS-38 Catalog number: 35869 Epoch time: 14303.65033409 Element set: 936 Inclination: 098.5264 deg RA of node: 346.5853 deg Eccentricity: 0.0005521 Arg of perigee: 070.5775 deg Mean anomaly: 088.7958 deg Mean motion: 14.22238105 rev/day Decay rate: 6.0e-07 rev/day^2 Epoch rev: 26562 Checksum: 324
Satellite: JUGNU Catalog number: 37839 Epoch time: 14302.98566597 Element set: 725 Inclination: 019.9600 deg RA of node: 157.9332 deg Eccentricity: 0.0018920 Arg of perigee: 029.8813 deg Mean anomaly: 080.5190 deg Mean motion: 14.12359877 rev/day Decay rate: 5.70e-06 rev/day^2 Epoch rev: 15763 Checksum: 328
Satellite: SRMSAT Catalog number: 37841 Epoch time: 14303.72305839 Element set: 728 Inclination: 019.9705 deg RA of node: 175.5118 deg Eccentricity: 0.0011829 Arg of perigee: 332.5635 deg Mean anomaly: 071.1314 deg Mean motion: 14.10392219 rev/day Decay rate: 4.42e-06 rev/day^2 Epoch rev: 15751 Checksum: 282
Satellite: RAX-2 Catalog number: 37853 Epoch time: 14303.16680156 Element set: 949 Inclination: 101.7027 deg RA of node: 037.3007 deg Eccentricity: 0.0210512 Arg of perigee: 025.7994 deg Mean anomaly: 037.5224 deg Mean motion: 14.91365550 rev/day Decay rate: 1.0101e-04 rev/day^2 Epoch rev: 16276 Checksum: 274
Satellite: AUBIESAT Catalog number: 37854 Epoch time: 14302.83528023 Element set: 947 Inclination: 101.7075 deg RA of node: 039.1688 deg Eccentricity: 0.0207646 Arg of perigee: 023.1475 deg Mean anomaly: 093.3132 deg Mean motion: 14.92898057 rev/day Decay rate: 9.481e-05 rev/day^2 Epoch rev: 16278 Checksum: 319
Satellite: HRBE Catalog number: 37855 Epoch time: 14302.86922993 Element set: 967 Inclination: 101.7072 deg RA of node: 038.3599 deg Eccentricity: 0.0210113 Arg of perigee: 024.7414 deg Mean anomaly: 336.3694 deg Mean motion: 14.92085279 rev/day Decay rate: 8.730e-05 rev/day^2 Epoch rev: 16274 Checksum: 320
